EDT,Max TemperatureF,Mean TemperatureF,Min TemperatureF,Max Dew PointF,MeanDew PointF,Min DewpointF,Max Humidity, Mean Humidity, Min Humidity, Max Sea Level PressureIn, Mean Sea Level PressureIn, Min Sea Level PressureIn, Max VisibilityMiles, Mean VisibilityMiles, Min VisibilityMiles, Max Wind SpeedMPH, Mean Wind SpeedMPH, Max Gust SpeedMPH,PrecipitationIn, CloudCover, Events, WindDirDegrees
2013-7-1,83,75,66,67,65,60,93,70,47,29.95,29.84,29.76,10,8,1,22,2,25,0.19,6,Rain-Thunderstorm,189
2013-7-2,86,75,64,69,66,62,100,74,48,30.07,29.98,29.88,10,8,2,17,2,21,0.12,5,Rain-Thunderstorm,176
2013-7-3,73,69,64,70,66,63,100,92,84,30.23,30.16,30.05,10,6,1,12,3,14,1.65,7,Rain,121
2013-7-4,84,74,64,69,65,62,93,74,55,30.24,30.15,30.09,10,10,7,16,3,20,0.18,6,Rain,136
2013-7-5,85,76,67,70,65,62,93,72,51,30.18,30.13,30.10,10,10,10,16,4,19,T,6,,165
2013-7-6,85,76,67,68,66,64,93,74,55,30.14,30.12,30.04,10,9,3,17,5,22,0.38,6,Rain-Thunderstorm,132
2013-7-7,77,72,66,69,67,65,93,83,73,30.20,30.12,30.06,10,10,8,16,4,22,0.08,7,Rain,258
2013-7-8,86,76,65,68,65,63,100,74,48,30.25,30.17,30.09,10,8,0,9,1,12,0.00,5,Fog,207
2013-7-9,89,77,65,69,66,64,100,73,46,30.22,30.12,30.04,10,8,1,8,2,12,0.00,4,,214
2013-7-10,84,76,68,75,70,67,97,83,69,30.13,30.02,29.91,10,9,2,16,3,22,0.17,6,Rain-Thunderstorm,216
2013-7-11,81,74,66,70,68,65,100,84,67,30.03,29.95,29.86,10,9,1,9,3,13,0.06,6,Rain-Thunderstorm,230
2013-7-12,83,73,63,67,64,59,100,73,46,30.01,29.94,29.89,10,5,0,12,4,18,0.00,5,Fog,11
2013-7-13,83,73,63,65,62,60,93,70,47,30.08,30.03,29.96,10,10,10,14,4,20,0.00,4,,105
2013-7-14,85,77,69,71,67,64,100,78,55,30.23,30.17,30.07,10,8,1,16,5,22,0.49,6,Rain,123
2013-7-15,89,77,65,67,65,62,93,68,43,30.30,30.26,30.22,10,10,10,8,2,11,T,3,,82
2013-7-16,91,77,63,69,66,62,93,69,44,30.33,30.27,30.22,10,10,9,8,2,14,0.00,2,,25
2013-7-17,91,80,68,74,68,65,93,73,52,30.30,30.25,30.15,10,7,1,18,2,23,1.58,6,Rain-Thunderstorm,45
2013-7-18,91,79,67,74,68,64,97,75,52,30.28,30.17,30.05,10,6,0,21,2,30,0.04,6,Fog-Rain-Thunderstorm,357
2013-7-19,88,77,66,73,68,65,100,78,55,30.18,30.09,29.95,10,5,0,23,3,29,0.56,6,Fog-Rain-Thunderstorm,253
2013-7-20,83,75,67,73,69,66,97,86,74,30.09,29.99,29.91,10,7,2,20,2,26,0.51,6,Rain-Thunderstorm,162
2013-7-21,81,75,68,71,68,66,97,86,74,30.07,29.98,29.92,10,8,2,13,3,16,0.08,7,Rain-Thunderstorm,207
2013-7-22,85,76,67,70,68,66,100,79,58,30.01,29.92,29.80,10,9,4,16,6,21,0.13,7,Rain-Thunderstorm,237
2013-7-23,85,78,70,69,67,65,97,74,51,29.94,29.86,29.78,10,10,4,17,8,22,0.13,6,,241
2013-7-24,85,78,70,70,68,63,100,76,51,29.91,29.84,29.77,10,8,2,12,4,14,0.08,7,Rain-Thunderstorm,255
2013-7-25,82,72,62,64,60,57,87,65,43,30.04,29.94,29.86,10,10,6,12,3,15,0.00,2,,1
2013-7-26,87,72,57,66,61,56,100,72,44,30.08,30.02,29.96,10,10,10,26,3,34,0.01,3,Rain-Thunderstorm,336
2013-7-27,81,74,67,69,67,64,93,76,58,30.03,29.95,29.87,10,8,2,13,2,16,0.07,7,Rain-Thunderstorm,171
2013-7-28,82,72,61,66,63,57,100,73,45,30.04,29.96,29.88,10,7,1,16,5,23,0.34,5,Rain,272
2013-7-29,80,68,55,59,55,50,97,67,37,30.19,30.13,30.04,10,8,0,12,2,14,0.00,3,Fog,328
2013-7-30,81,69,56,62,59,55,100,71,42,30.22,30.17,30.13,10,10,7,10,1,14,0.00,5,,335
2013-7-31,71,68,64,67,65,61,93,89,84,30.18,30.07,29.96,10,6,2,7,1,9,0.26,8,Rain,69